Marion, OH

3:12 AM EDT on July 28, 2016 (GMT -0400)
Marion Municipal

Weather History for KMNN - December, 2013

Change the Weather History Date:

Thursday, December 26, 2013

  Actual Average (KDLZ) Record (KDLZ)
Temperature  
Mean Temperature 28 °F -  
Max Temperature 30 °F 32 °F 63 °F (1982)
Min Temperature 26 °F 16 °F -14 °F (1983)
Degree Days  
Heating Degree Days 37    
Moisture  
Dew Point 20 °F    
Average Humidity 70    
Maximum Humidity 89    
Minimum Humidity 47    
Precipitation  
Precipitation 0.00 in - - ()
Sea Level Pressure  
Sea Level Pressure 30.25 in    
Wind  
Wind Speed 12 mph (WSW)    
Max Wind Speed 21 mph    
Max Gust Speed 28 mph    
Visibility 9 miles    
Events      
Averages and records for this station are not official NWS values.
T = Trace of Precipitation, MM = Missing Value Source: NWS Daily Summary

Daily Weather History Graph

Daily Weather History Graph

Search for Another Location

Airport or City:

Trip Planner

Search our weather history database for the weather conditions in past years. The results will help you decide how hot, cold, wet, or windy it might be!

Date:

Astronomy

Dec. 26, 2013 Rise Set
Actual Time 7:54 AM EST 5:11 PM EST
Civil Twilight 7:23 AM EST 5:42 PM EST
Nautical Twilight 6:49 AM EST 6:16 PM EST
Astronomical Twilight 6:16 AM EST 6:50 PM EST
Moon 1:20 AM EST (12/26) 12:47 PM EST (12/26)
Length of Visible Light 10h 18m
Length of Day
9h 16m
Last Quarter, 38% of the Moon is Illuminated
Dec 26
Last Quarter
Jan 1
New
Jan 7
First Quarter
Jan 15
Full
Jan 24
Last Quarter

Hourly Weather History & Observations

Time (EST) Temp. Windchill Dew Point Humidity Pressure Visibility Wind Dir Wind Speed Gust Speed Precip Events Conditions
12:53 AM 28.0 °F 20.0 °F 21.9 °F 78% 30.17 in 10.0 mi SW 8.1 mph - N/A   Overcast
1:53 AM 28.9 °F 18.2 °F 23.0 °F 78% 30.16 in 10.0 mi WSW 13.8 mph 19.6 mph N/A   Overcast
2:53 AM 28.9 °F 20.4 °F 21.9 °F 75% 30.16 in 10.0 mi WSW 9.2 mph - N/A   Overcast
3:53 AM 28.9 °F 18.6 °F 23.0 °F 78% 30.14 in 8.0 mi SW 12.7 mph - 0.00 in   Overcast
4:53 AM 28.9 °F 19.8 °F 25.0 °F 85% 30.14 in 8.0 mi SW 10.4 mph - N/A   Overcast
5:22 AM 28.4 °F 17.5 °F 24.8 °F 86% 30.10 in 6.0 mi WSW 13.8 mph - N/A   Overcast
5:53 AM 28.9 °F 17.7 °F 26.1 °F 89% 30.16 in 4.0 mi WSW 15.0 mph 20.7 mph N/A   Overcast
6:53 AM 28.9 °F 16.9 °F 25.0 °F 85% 30.18 in 7.0 mi West 17.3 mph 23.0 mph N/A   Overcast
7:05 AM 28.4 °F 17.0 °F 24.8 °F 86% 30.15 in 7.0 mi West 15.0 mph 25.3 mph N/A   Overcast
7:36 AM 28.4 °F 16.2 °F 21.2 °F 74% 30.16 in 9.0 mi West 17.3 mph 26.5 mph N/A   Mostly Cloudy
7:53 AM 28.0 °F 17.0 °F 21.9 °F 78% 30.22 in 9.0 mi West 13.8 mph 25.3 mph N/A   Scattered Clouds
8:30 AM 28.4 °F 18.0 °F 19.4 °F 69% 30.19 in 9.0 mi West 12.7 mph 26.5 mph N/A   Mostly Cloudy
8:43 AM 26.6 °F 13.8 °F 19.4 °F 74% 30.19 in 8.0 mi West 17.3 mph 23.0 mph N/A   Scattered Clouds
8:53 AM 27.0 °F 16.7 °F 19.9 °F 75% 30.25 in 8.0 mi West 11.5 mph 20.7 mph N/A   Partly Cloudy
9:46 AM 28.4 °F 18.5 °F 19.4 °F 69% 30.22 in 8.0 mi West 11.5 mph 20.7 mph N/A   Mostly Cloudy
9:53 AM 28.0 °F 16.5 °F 19.9 °F 72% 30.27 in 8.0 mi West 15.0 mph 20.7 mph N/A   Mostly Cloudy
10:53 AM 28.0 °F 15.3 °F 18.0 °F 66% 30.30 in 9.0 mi West 18.4 mph 25.3 mph N/A   Mostly Cloudy
11:18 AM 28.4 °F 17.5 °F 17.6 °F 64% 30.26 in 9.0 mi West 13.8 mph 25.3 mph N/A   Scattered Clouds
11:53 AM 30.0 °F 19.1 °F 17.1 °F 59% 30.30 in 10.0 mi West 15.0 mph - N/A   Clear
12:53 PM 30.9 °F 19.8 °F 15.1 °F 52% 30.29 in 10.0 mi West 16.1 mph 24.2 mph N/A   Clear
1:53 PM 30.9 °F 18.4 °F 14.0 °F 50% 30.30 in 10.0 mi West 20.7 mph 27.6 mph N/A   Clear
2:53 PM 30.9 °F 20.2 °F 12.9 °F 47% 30.30 in 10.0 mi West 15.0 mph 23.0 mph N/A   Clear
3:53 PM 30.9 °F 19.4 °F 15.1 °F 52% 30.31 in 10.0 mi West 17.3 mph 23.0 mph N/A   Clear
4:53 PM 28.9 °F 19.2 °F 15.1 °F 56% 30.33 in 10.0 mi West 11.5 mph - N/A   Clear
5:53 PM 27.0 °F 20.5 °F 17.1 °F 66% 30.35 in 10.0 mi West 5.8 mph - N/A   Clear
6:53 PM 28.0 °F 24.2 °F 17.1 °F 63% 30.36 in 10.0 mi West 3.5 mph - N/A   Overcast
7:53 PM 28.0 °F - 18.0 °F 66% 30.35 in 10.0 mi Calm Calm - N/A   Overcast
8:53 PM 27.0 °F 20.5 °F 19.0 °F 72% 30.35 in 10.0 mi South 5.8 mph - N/A   Overcast
9:53 PM 28.0 °F 20.8 °F 19.9 °F 72% 30.34 in 10.0 mi South 6.9 mph - N/A   Overcast
10:53 PM 28.0 °F 19.3 °F 19.9 °F 72% 30.33 in 10.0 mi South 9.2 mph - N/A   Overcast
11:53 PM 30.0 °F 21.7 °F 21.0 °F 69% 30.32 in 10.0 mi SSW 9.2 mph - N/A   Overcast